Voltar ao catálogo

STARLINK-37419

AtivoComunicaçõesVLEO
NORAD 69197·PAYLOAD·🇺🇸 United States

Lançado May 25, 2026 de Cape Canaveral Space Force Station

Loading…

Próximas Passagens (próximas 24 horas)

TLE

AtualizadoSource: CelesTrak SupGP

Época: Sep 14, 2026, 22:34 UTC

1 69197C 26114R   26257.94076389 -.00098652  00000+0 -29139-2 0  2578
2 69197  53.1570 139.6956 0001358  88.2355 241.5782 15.34448674    18

Acompanhe STARLINK-37419 em tempo real com AllMySat

Download on the App Store